Location: Unspecified
(43.8044°N, 11.0278°E)
Time: 12:23:01
(UTC+02:00)

Cosmos 2058 - Visible Passes

Search period start: 01 October 2016 00:00
Search period end: 11 October 2016 00:00
Orbit: 563 x 587 km, 82.5° (Epoch: 30 September)

Date Brightness Start Highest point End Pass type
(mag) Time Alt. Az. Time Alt. Az. Time Alt. Az.
01 Oct 3.6 20:27:09 10° N 20:30:41 33° ENE 20:30:41 33° ENE visible
01 Oct 5.5 22:04:40 10° NW 22:06:57 19° WNW 22:06:57 19° WNW visible
02 Oct 3.1 20:30:34 10° N 20:34:33 45° ENE 20:34:42 44° E visible
02 Oct 5.7 22:08:46 10° NW 22:10:58 15° W 22:10:58 15° W visible
03 Oct 2.8 20:34:02 10° N 20:38:08 61° E 20:38:49 52° SE visible
03 Oct 6.0 22:13:22 10° WNW 22:14:30 11° W 22:15:05 11° W visible
04 Oct 2.7 20:37:33 10° N 20:41:43 83° E 20:43:03 42° SSE visible
05 Oct 3.0 20:41:08 10° NNW 20:45:15 73° W 20:47:27 27° S visible
06 Oct 3.6 20:44:45 10° NNW 20:48:47 53° W 20:52:05 15° SSW visible
07 Oct 4.4 19:12:23 10° NNE 19:15:11 17° ENE 19:17:58 10° ESE visible
07 Oct 4.2 20:48:26 10° NNW 20:52:18 39° W 20:56:11 10° SSW visible
08 Oct 4.1 19:15:33 10° NNE 19:18:50 22° ENE 19:22:08 10° SE visible
08 Oct 4.8 20:52:11 10° NNW 20:55:48 30° W 20:59:26 10° SSW visible
09 Oct 3.7 19:18:50 10° NNE 19:22:29 29° ENE 19:26:08 10° SE visible
09 Oct 5.3 20:56:01 10° NW 20:59:17 23° W 21:02:33 10° SW visible
10 Oct 3.4 19:22:12 10° N 19:26:07 38° ENE 19:30:00 10° SE visible
10 Oct 5.8 20:59:59 10° NW 21:02:44 17° W 21:05:29 10° SW visible
